贈送 蜂蜜千層蛋糕球

看板 Tainan
作者
時間
留言 311則留言,300人參與討論
推噓 302  ( 303推 1噓 7→ )
贈送即期品 因為上個月已經捐了118盒給街友,所以如果沒有人要的話我就再問問其他機構是否能接 受即期品。推文者要能接受是即期品才推喔! https://i.imgur.com/eNrrnWk.jpg
產品介紹:適合甜食螞蟻的人 此產品擁有300多年的歷史,煉乳蜂蜜夾千層。 1.蜂蜜千層蛋糕800g https://i.imgur.com/939q233.jpg
2.蜂蜜千層蛋糕球235g https://i.imgur.com/zAFx0s4.jpg
因為有新產品要入港了,要清出倉庫。 100推文裡面抽共50位,每位一盒(隨機)抽獎結果明日下午告知。 被抽到的希望在9/19,晚上9點能位於南區明興路(正旺店711)領取。 ————————請注意推文內文有更新—— 抽到名額抽完為止 -- ※ 發信站: 批踢踢實業坊(ptt.cc), 來自: 122.121.61.116 (臺灣) ※ 文章網址: https://www.ptt.cc/bbs/Tainan/M.1568775210.A.A5A.html ※ 編輯: hank11202010 (122.121.61.116 臺灣), 09/18/2019 10:54:27
1Fqttempt: 推,已知即期09/18 10:55
2Fphws: 推,已知即期09/18 10:57
3Fon2: 推,已知即期09/18 10:57
4Fjustinoqo: 推 已知即期09/18 10:59
5Fjammie: 推 已知即期09/18 11:00
6Fgummie: 推,已知即期09/18 11:00
7FHaDaYa: 推,已知即期09/18 11:02
8Fcin2: 有點遠 純粹幫推XD09/18 11:02
9Ftakayuki: 推,已知即期09/18 11:03
10Fwinnieeeeeqq: 推 已知即期09/18 11:03
11FBarot: 推,已知即期09/18 11:04
12Fjl77: 推,已知即期09/18 11:05
13Fgcw45: 推 已知即期09/18 11:05
14FDVS: 推 已知即期09/18 11:05
15Fpinksky326: 推 已知即期09/18 11:05
16Fwulihae: 推 已知即期09/18 11:05
17Fh350: 推 已知即期09/18 11:06
18Fgo301401501: 推,已知即期09/18 11:06
19Fimpotion: 推 已知即期09/18 11:07
20Fbobbi: 推,已知即期09/18 11:07
21Fhermanlu: 推,已知即期09/18 11:09
22Fa2632918: 推 已知即期09/18 11:10
23Fyulymoon: 推 已知即期09/18 11:10
24FTpenguin: 推 已知即期09/18 11:11
25Flostguy: 推,已知即期09/18 11:11
※ 編輯: hank11202010 (122.121.61.116 臺灣), 09/18/2019 11:12:50
26Fmimian17: 推 09/18 11:13
27Ftyu2725330: 推,已知即期 謝謝好心 09/18 11:14
28Fericps: 推,已知即期 09/18 11:14
29Ftyu2725330: 不索取~ 09/18 11:16
30Fdorabmon923: 推,已知即期 09/18 11:16
31Fpigergod: 推,已知即期 09/18 11:17
32Fma217: 推,已知即期,100分 09/18 11:17
33Fyinglan26: 推!已知即期09/18 11:19
34Fh20131231: 推 09/18 11:20
35Fhtj1961: 推,已知即期 09/18 11:20
36Fvic04314: 推,已知即期 09/18 11:21
37Fna726n: 推,已知即期 09/18 11:21
38Ffallforyou11: 推 已知即期~~ 09/18 11:21
39Fshila70438: 推,已知即期 09/18 11:22
40Flegusta: 推 已知即期 09/18 11:22
41FJ00000O: 推,已知即期 09/18 11:22
42FRB1125: 推,已知即期 09/18 11:22
43Famy19941009: 推 已知即期! 09/18 11:22
44Fd8273: 推. 已知即期.. 09/18 11:22
45Fa81526a: 推 已知即期 09/18 11:23
46Fstarry1102: 推 已知即期 09/18 11:23
47FLibertywing: 推 已知即期09/18 11:24
48Fsue0714: 推 已知即期 09/18 11:24
49Flastdance723: 推 已知即期 09/18 11:25
50Fziyu0524: 推。已知即期 09/18 11:26
51Fhsianga0323: 好心推推 已知即期 09/18 11:27
52Fcoolkid: 推,已知即期 09/18 11:28
53Fpccuupway: 推 09/18 11:29
54Fpccuupway: 推已知即期 09/18 11:29
55Fwe19830: 推,已知即期09/18 11:29
56Fmra2284: 推 已知即期 09/18 11:29
57Fprincesssara: 推,已知即期 09/18 11:31
58Fushotu: 感覺很好吃,已知即期,謝謝分享(也推好心 09/18 11:33
59Fdc159003: 推,已知即期 09/18 11:33
60Fsine110391: 推,已知即期 09/18 11:33
61FBeregu: 推,已知即期 09/18 11:34
62Fxzon71493: 推,已知即期 09/18 11:36
63Fling108: 推,已知即期 09/18 11:36
64Fachun18795: 推,已知即期 09/18 11:36
65Fwav54321: 推,已知即期 09/18 11:37
66Fyaphrodi: 推 !已知即期 09/18 11:37
67Fplaylive: 推,已知即期 09/18 11:38
68Fz2890337: 推,已知即期 09/18 11:39
69FGaga5566: 推,已知即期09/18 11:39
70Fsweetpepper: 推 !已知即期 09/18 11:39
71FlinAwu: 推,已知即期 09/18 11:40
72Flemon22: 推,已知即期 09/18 11:40
73Fmarukoning: 推,已知即期,但有點遠哈哈 09/18 11:40
74Fqwe1124: 推 已知即期 09/18 11:40
75Fkoyyuiw: 推,已知即期 09/18 11:42
76FShihjiahong: 推,已知即期! 09/18 11:42
77FHandsomeNG: 推,已知即期~~3Q09/18 11:42
78Fwinghope: 推,已知即期 09/18 11:42
79Fkhm123: 推,已知即期~~3Q 09/18 11:43
80Fumikamo: 推 已知即期 09/18 11:43
81Fsdfcvb: 推,已知即期~~ 09/18 11:44
82Fgoodsaint: 推,已知即期 09/18 11:44
83Fuisiang: 推 已知即期 09/18 11:44
84Fumikamo: 阿不用算我感謝 09/18 11:44
85Fsqrt1089: 推~已知即期 09/18 11:45
86Fponykid: 推!!已知道即期! 09/18 11:45
87FBestGG: 推,已知即期 09/18 11:46
88FTIMPIGTIM: 推 已知即期 09/18 11:50
89Fvincent3768: 推 已知即期 09/18 11:50
90Fmdptt: 推,已知即期 09/18 11:52
91Fzone7477: 推 已知即期09/18 11:52
92Fyuan780903: 推 09/18 11:53
93Fyuan780903: 推 !已知即期 09/18 11:53
94FMIRACLEWC: 推,已知即期 09/18 11:53
95Fwaikch: 推,已知即期 09/18 11:53
96Fivoryfeather: 推,已知即期 09/18 11:53
97FWWC1327: 推,已知即期 09/18 11:54
98Fnick343401: 推,已知即期 09/18 11:54
99Fhsun003: 推 已知即期09/18 11:55
100Fzeromusic: 推,已知即期 09/18 11:55
101Fcolorwide: 推,已知即期 09/18 11:56
102Ffallmi: 推 已知即期 09/18 11:57
103Fsarahsoyeon: 推,已知即期 09/18 11:57
104Fbaobao: 推 已知即期 09/18 11:58
105Fregist: 推,已知即期 09/18 11:58
106Fovo831117: 推,已知即期 09/18 11:59
107Fohbee: 推,已知即期 09/18 11:59
108Fjuliana8863: 推,已知即期 09/18 11:59
109Fohmimino: 推,已知即期 09/18 11:59
110Fcattybear: 推,已知即期 09/18 11:59
111Fpicaro: 推,已知即期 09/18 12:02
112Fsxt1820: 推,已知即期 09/18 12:02
113Fchenyusyuan: 推 已知即期09/18 12:03
114Fparkromi: 推 已知即期 09/18 12:04
115Fbooksy: 推 已知即期 09/18 12:06
116Fcocogirl: 推,已知即期 離我好近XD 09/18 12:06
117FBorderlineK: 純推不拿 09/18 12:07
118Fylikey: 推 已知即期 09/18 12:08
119Fishtar2008: 推,已知即期 09/18 12:08
120Fwero: 推 已知即期 09/18 12:09
121Fjt912129: 推09/18 12:09
122Fppoiuy: 推,已知即期 09/18 12:10
123Fkonesammi: 推 09/18 12:11
124Fwwow816: 推,已知即起 09/18 12:12
125Fvickey70: 推,已知即期 09/18 12:14
126Fdreamyboy: 推,已知即期 09/18 12:16
127Fvivi96: 推 已知即期 09/18 12:17
128Fyuzuka0429: 推,已知即期 09/18 12:17
129Fmilkkiss: 想買 09/18 12:17
130FWeienC: 推,已知即期 09/18 12:18
131Fputalulala: 推 ,已知即期 09/18 12:19
132Fcutielee: 推 已知即期~~~~ 09/18 12:19
133Fwang987: 推 09/18 12:19
134FVandey: 推,已知即期 09/18 12:20
135Frainyred: 推,已知即期09/18 12:21
136Fiflost: 推 ,已知即期! 09/18 12:22
137Fjoycetintin: 推,已知即期 09/18 12:24
138Flizilizi: 推 09/18 12:24
139Feva987xn: 推推 已知即期品 09/18 12:25
140Fby: 推,已知即期 09/18 12:25
141Fwalabobo: 推 已知即期 09/18 12:25
142Fac06162: 推,已知即期 09/18 12:26
143Frailwayman: 推,已知即期09/18 12:28
144Fleviss: 推,已知即期可以 09/18 12:29
145Ffish2052: 推 已知即期 09/18 12:29
146Fvonqzlqk17: 推,已知即期 09/18 12:29
147Feyelv: 推,已知即期 09/18 12:30
148Fcynthiaya: 推 已知即期 09/18 12:31
149Fzhengweisii: 推,已知即期 09/18 12:31
150Fkimperlove: 推,已知即期 09/18 12:31
151Fstaran: 推 已知即期 09/18 12:33
152Fsamjohn: 推,已知即期 09/18 12:34
153Fshine77611: 推,已知即期 09/18 12:35
154FAyue4113: 推,已知即期 09/18 12:35
155Fnukjay: 推,已知即期 09/18 12:36
156Feig100: 推,已知即期。 螞蟻人路過 09/18 12:36
157FAnn1990: 推09/18 12:37
158Fppv: 推,已知即期 09/18 12:37
159Fmo25555p: 推,已知即期 09/18 12:37
160Fhawdaiya: 推,已知即期 09/18 12:39
161Fmonkey5h123: 推,已知即期 09/18 12:41
162Fjordaniou: 推,已知即期 09/18 12:42
163Fyoyo3855433: 想吃!! 已知即期~ 09/18 12:43
164Fsunny0919: 推!已知即期 09/18 12:44
165Fya022822: 推 已知即期09/18 12:44
166Ff5869: 推,已知即期,推好心 09/18 12:47
167Fjackyndqt: 推,已知即期 09/18 12:49
168Faching882000: 好啊 推佛心 09/18 12:49
169Faimez13je: 推,已知即期 09/18 12:49
170Fkissbolly: 推,已知即期 09/18 12:51
171Fcurlhair: 推 已知即期 09/18 12:51
172Flinkchin: 推,已知即期。 09/18 12:52
173Fred565: 推,已知即期 09/18 12:53
174Fbluuuuuesky: 推,已知即期 09/18 12:54
175Fjkl553: 推,已知即期 09/18 12:54
176Ftai22446688: 推 09/18 12:54
177FWhitetea: 推,已知即期 09/18 12:55
178Fkurihashi: 純推,好想要太遠了 09/18 12:56
179Feihi: 推 已知即期09/18 12:58
180FbeccaH: 推 已知即期 09/18 13:01
181Fimflora529: 推,已知即期~ 09/18 13:02
182Friiiingreen: 推 09/18 13:03
183Fyibilin: 推,已知即期 09/18 13:03
184Fchengcheng: 推~已知即期 09/18 13:05
185Fhe01079870: 推,已知即期 09/18 13:06
186Ftomax2k: 推 09/18 13:07
187Fjujudydypp: 推,選我09/18 13:07
188Fmaryvisac: 推,已知即期 09/18 13:08
189Fiverson07777: 推,已知即期 09/18 13:10
190Fk1128: 推,已知即期 09/18 13:11
191Fshiyuna: 推,已知即期 09/18 13:16
192Fowl0411: 推,已知即期 09/18 13:24
193Flonelyawp: 推 已知即期 09/18 13:26
194Fsheng79526: 推 已知即期 09/18 13:28
195FYUNAUEE: 推 ,已知即期 09/18 13:30
196Fcyc74411: 推~已知即期 09/18 13:32
197Flin771130: 推,已知即期 09/18 13:37
198FLeonor0702: 推!已知即期 09/18 13:40
199Fxx321948: 推,已知即期 09/18 13:42
200Fmilove307: 推,已知即期 09/18 13:43
201Fsdfg014025xx: 推,已知即期09/18 13:44
202FDoraemon9487: 推,已知即期 09/18 13:45
203Fhenry10295: 推 已知即期 09/18 13:46
204Falwu: 推,已知即期 09/18 13:48
205Ftargetcat: 推,已知即期 09/18 13:50
206FMiyabieEva: 推,已知即期 09/18 13:50
207Fyancurio: 推,已知即期 09/18 13:50
208Ffoxfree: 推,已知即期 09/18 13:52
209Feashiun: 推,已知即期09/18 13:56
210Fpoem1999: 推 已知即期 09/18 13:57
211Fmarcgun: 推,已知即期 09/18 14:00
212Fq920110: 推 已知即期 09/18 14:03
213Fsammiezxc: 推,已知即期 09/18 14:05
214Fwanlis: 推~ 已知道即期 覺得沒啥差 09/18 14:14
215Fhaflower79: 推!已知即期 09/18 14:16
216Fhs80055: 推 已知即期 09/18 14:18
217Fbasicst: 推,已知即期 09/18 14:21
218Fggrreennn: 推 已知即期 09/18 14:21
219Fnicole2590: 推,已知即期 09/18 14:21
220FKyo824: 推,已知即期 09/18 14:22
221Fjoain: 推,已知即期 09/18 14:27
222Fhaine0723: 推,已知即期 09/18 14:33
223Fwasd1234: 推,已知即期09/18 14:36
224FOPT2007: 推,已知即期 09/18 14:38
225Fchenmingchih: 推,已知即期 09/18 14:40
226Fkatsumisheng: 推,已知即期 09/18 14:41
227Fgin813: 推,已知即期 09/18 14:41
228Fswt24090: 推啊! 09/18 14:41
229Fhey55: 好心推 09/18 14:43
230Fpckck: 推推 抽我抽我 09/18 14:53
231Fking761209: 推,已知即期09/18 14:53
232Fshiwai: 推,已知即期 好心推推推 09/18 14:53
233FHuangOpen: 推 已知即期 09/18 15:00
234Frainbowh: 推 已知即期 09/18 15:00
235Fayur: 推 09/18 15:06
236Ftestaho: 推,已知即期 09/18 15:09
237Fsakize: 推,已知即期 09/18 15:13
238Fspadec25187: 推,已知即期 09/18 15:13
239Fjasonwde: 純推好心不抽 09/18 15:15
240Fsyun17: 推,已知即期 09/18 15:19
241FmapleXD: 推,已知即期 09/18 15:24
242Fblueocean1: 推,已知即期 09/18 15:27
243Ftbc1029: 推 ~已知即期,謝謝您的好心 09/18 15:30
244FB10057090: 推 已知即期 09/18 15:32
245Fslipbliss: 推,已知即期09/18 15:42
246Fshineystar: 推,已知即期 09/18 15:44
247Fjoeytoast: 推 已知即期 09/18 15:52
248Fstlotwa: 推,已知即期 09/18 15:55
249Flove104747: 純推~ 09/18 15:55
250Fthreeeightf: 推,已知即期 09/18 16:00
251Fadrianhhhh: 推,知即期 09/18 16:25
252Fwulaa: 推,即期ok 09/18 16:26
253Fpool7592002: 推,已知即期09/18 16:37
254Famandear: 推 09/18 16:40
255Fneepa: 推,已知即期 09/18 16:40
256Famandear: 已知及期 09/18 16:41
257Fpoupee: 推 已知即期 09/18 16:43
258FAlexShen: 推,已知即期 09/18 16:44
259Fpeter771101: 推 已知即期 09/18 16:51
260Fparrykimo: 推 已知即期 09/18 17:07
261Fjaku3621: 推,已知即期 09/18 17:10
262Fuznig: 推推 已知即期 09/18 17:14
263Fpanda520: 推,已知即期 09/18 17:19
264Fannayjudy: 推,已知即期 09/18 17:21
265Floveparadise: 推,已知即期 09/18 17:25
266Fchacha123456: 推,已知即期 09/18 17:26
267Fas3583922: 推,已知即期09/18 17:28
268Fpuni52041: 推 09/18 17:33
269Fsky900105: 推,已知即期 09/18 17:48
270Forangewang: 推,已知即期 09/18 17:51
271Flazy1: 推,已知即期 09/18 17:51
272Fzvsp00649: 推,已知即期 09/18 17:59
273Fl19911025: 推 已知即期 09/18 18:08
274Fa20207264: 推,已知即期 09/18 18:20
275Fyl20649: 明天要上班QQ09/18 18:35
276Fw805232000: 推 09/18 18:35
277Fw805232000: 推,已知即期 09/18 18:35
278Frtgh2318811: 推,已知即期 09/18 18:40
279Fprettysasa: 推,已知即期 09/18 18:52
280FannaZSH: 住南區想吃!已知即期 09/18 19:14
281Fk70297: 推,已知即期 09/18 19:17
282Fwilly771116: 推,已知即期 09/18 19:17
283Fbaman: 推,已知即期,感謝 09/18 19:23
284Fkt33210: 推 已知即期 09/18 19:41
285Fccbejb: 推,已知即期 09/18 19:44
286Froleleft: 推推 09/18 19:45
287Fsmilei3388: 推,已知即期 09/18 19:47
288Fchudream: 推,已知即期 09/18 19:51
289Fonceleggo: 推推09/18 19:56
290Fhachiii: 推,已知即期 09/18 19:56
291Fginny002: 推~已知即時 09/18 20:19
292Ffuzzychoice: 推,已知即期 09/18 20:24
_____________目前已初步達成100樓(282樓 故提早抽籤 待會會站內信 若有人無法前往領取 或站內信超過中午沒有回信 將會開放其他名額 已抽完50人以下為得獎名單 Ann1990 lonelyawp parkromi poem1999 lizilizi Kyo824 ovo831117 puni52041 AlexShen yulymoon vincent3768 iflost gcw45 sdfg014025xx J00000O l19911025 joain fish2052 dorabmon923 lin771130 nicole2590 ac06162 cin2 kimperlove jujudydypp smilei3388 q920110 railwayman khm123 Gaga5566 tyu2725330 rainbowh joycetintin mapleXD wasd1234 monkey5h123 coolkid jkl553 aching882000 bobbi amandear cutielee winnieeeeeqq jl77 yinglan26 wulaa juliana8863 jasonwde Leonor0702 takayuki ※ 編輯: hank11202010 (122.121.61.116 臺灣), 09/18/2019 20:35:44
293Fmingwen18: 推 已知即期09/18 20:28
※ 編輯: hank11202010 (122.121.61.116 臺灣), 09/18/2019 20:36:41
294Ftacohsin: 推 已知即期09/18 20:42
295Fu9522046: 推,惜福09/18 21:06
296Fgary800303: 推,已知即期09/18 21:28
297Fokfine: 推 已知即期09/18 21:28
298Fviii0505: 推,已知即期09/18 22:08
299Fsses40713: 推,已知即期09/18 22:35
300Fnanako: 推,已知即期09/18 22:45
301Fsunny37516: 推,已知即期09/18 22:51
302Fmongaga: 推,已知即期09/18 23:23
※ 編輯: hank11202010 (122.121.61.116 臺灣), 09/19/2019 01:28:36
303Fpiaor1001: 推,已知即期09/19 02:27
304Firene6: 推,已知即期09/19 03:29
305Fwhiship: 推,已知即期09/19 09:00
306Fseeker06: 推,已知即期09/19 12:43
目前有棄權名額故開放30名給其他鄉民 再抽的名額,請以下的id 收站內信 h350 king761209 yl20649 hermanlu ayur henry10295 picaro d8273. poupee on2 regist eyelv umikamo rainyred blueocean1 zhengweisii w805232000 foxfree dreamyboy eva987xn adrianhhhh z2890337 nukjay shine77611 sxt1820 chenmingchih koyyuiw starry1102 YUNAUEE stlotwa pckck ※ 編輯: hank11202010 (122.121.61.116 臺灣), 09/19/2019 13:53:35 ※ 編輯: hank11202010 (122.121.61.116 臺灣), 09/19/2019 13:56:36 ※ 編輯: hank11202010 (122.121.61.116 臺灣), 09/19/2019 16:41:44 ※ 編輯: hank11202010 (09/19/2019 16:43:33
307Fumikamo: 有拿有推09/19 21:34
308Fstlotwa: 中獎推推09/19 21:36
※ 編輯: hank11202010 (122.121.61.116 臺灣), 09/19/2019 21:41:02
309Fiflost: 有拿有推 感謝老闆娘和老闆!09/19 21:45
希望吃得還可以!
310Fchenmingchih: 謝謝,雖然很遠又因為找路小遲到,不過還好老闆娘09/19 22:03
311Fchenmingchih: 還在有順利拿到~09/19 22:03
※ 編輯: hank11202010 (122.121.61.116 臺灣), 09/19/2019 23:21:13

台南 熱門文章

31 文賢路的大猩猩
44 tainan andy00619 2019-10-22 14:29